Location: Unspecified
(0.0000°N, 0.0000°E)
Time: 23:18:09
(UTC+02:00)

AO-40 - Visible Passes

Search period start: 29 April 2017 00:00
Search period end: 09 May 2017 00:00
Orbit: 1102 x 58718 km, 6.3° (Epoch: 28 April)

Date Brightness Start Highest point End Pass type
(mag) Time Alt. Az. Time Alt. Az. Time Alt. Az.
29 Apr ? 16:27:27 10° E 23:01:50 84° S 05:05:24 10° E visible
30 Apr ? 18:01:01 10° E 22:13:33 44° E 23:43:24 10° E visible
01 May ? 20:04:58 10° W 21:37:57 49° W 02:20:15 10° W visible
02 May ? 14:45:27 10° W 21:19:51 83° S 03:52:58 10° W visible
03 May ? 16:19:05 10° E 22:54:20 84° S 04:37:42 10° E visible
04 May ? 17:53:58 10° E 21:45:38 40° E 23:13:26 10° E visible
05 May ? 19:35:43 10° W 21:09:54 53° WSW 02:12:29 10° W visible
06 May ? 14:17:46 10° W 21:11:45 83° S 03:45:03 10° W visible
07 May ? 16:10:34 10° E 22:47:10 84° S 04:09:58 10° E visible
08 May ? 17:47:23 10° E 21:17:49 36° E 22:22:53 24° E visible
